Home   Weather   Viernheim   Past weeks

Flag for Germany Past Weather in Viernheim, Hesse, Germany — Yesterday and Last 2 Weeks

Now
61 °F

Clear.


Feels Like: 61 °F
Forecast: 60 / 83 °F
Wind: 2 mph from North

Location: Frankfurt-M-Flughafen Airport

Current Time: Jul 21, 2017 at 12:54:00 am

Latest Report: Jul 21, 2017 at 12:20 am


Visibility: 10 mi

Pressure: 29.92 "Hg

Humidity: 88%

Dew Point: 57 °F

Location of ViernheimLocation

Past Weather in Viernheim — Graph

°F

Viernheim Temperature Yesterday

Maximum temperature yesterday: 77 °F (at 3:20 pm)
Minimum temperature yesterday: 63 °F (at 11:50 pm)
Average temperature yesterday: 71 °F

High & Low Weather Summary for the Past Weeks

 TemperatureHumidityPressure
High93 °F (Jul 19, 4:20 pm)100% (Jul 7, 5:50 am)30.24 "Hg (Jul 7, 5:50 am)
Low48 °F (Jul 13, 4:50 am)28% (Jul 7, 4:25 pm)29.74 "Hg (Jul 10, 2:20 pm)
Average70 °F68%30.00 "Hg
* Reported Jul 5 11:20 pm — Jul 20 11:50 pm, Viernheim. Weather by CustomWeather, © 2017

Note: Actual official high and low records may vary slightly from our data, if they occured in-between our weather recording intervals... More about our weather records

Advertising

Viernheim Weather History for the Previous 24 Hours

Scroll right to see more
 ConditionsComfort  
Time TempWeatherWind HumidityBarometerVisibility
11:50 pm
Thu, Jul 20
63 °FClear.1 mph83%29.92 "Hg10 mi
11:20 pm66 °FClear.6 mph73%29.92 "Hg10 mi
10:50 pm66 °FPassing clouds.7 mph73%29.92 "HgN/A
10:20 pm68 °FPassing clouds.7 mph73%29.89 "HgN/A
9:50 pm70 °FPassing clouds.7 mph64%29.89 "HgN/A
9:20 pm72 °FPassing clouds.8 mph57%29.89 "HgN/A
8:50 pm75 °FPassing clouds.10 mph50%29.86 "HgN/A
8:20 pm75 °FPassing clouds.10 mph54%29.86 "HgN/A
7:50 pm77 °FPassing clouds.16 mph51%29.83 "HgN/A
7:20 pm77 °FPassing clouds.12 mph61%29.83 "HgN/A
6:50 pm77 °FPassing clouds.12 mph61%29.83 "HgN/A
6:20 pm77 °FPassing clouds.12 mph65%29.83 "HgN/A
5:50 pm75 °FPassing clouds.10 mph74%29.86 "HgN/A
5:20 pm73 °FPassing clouds.10 mph78%29.86 "HgN/A
4:50 pm72 °FLots of rain. Scattered clouds.13 mph83%29.86 "HgN/A
4:30 pm68 °FLots of rain. Scattered clouds.14 mph88%29.86 "HgN/A
4:20 pm70 °FLots of rain. Scattered clouds.12 mph83%29.86 "HgN/A
4:02 pm73 °FRain showers. Scattered clouds.13 mph74%29.86 "HgN/A
3:50 pm75 °FScattered showers. Passing clouds.13 mph65%29.86 "HgN/A
3:20 pm77 °FPassing clouds.13 mph65%29.86 "HgN/A
2:50 pm73 °FScattered clouds.14 mph74%29.86 "HgN/A
1:58 pm70 °FLight rain. Broken clouds.10 mph88%29.89 "HgN/A
1:50 pm70 °FRain. Broken clouds.12 mph83%29.89 "HgN/A
1:20 pm72 °FLight rain. Broken clouds.14 mph78%29.89 "HgN/A
12:50 pm72 °FLight rain. Partly sunny.16 mph73%29.89 "HgN/A
12:20 pm72 °FSprinkles. Broken clouds.15 mph73%29.86 "HgN/A
11:50 am73 °FSprinkles. Broken clouds.8 mph69%29.86 "HgN/A
11:20 am73 °FBroken clouds.7 mph74%29.86 "HgN/A
10:50 am72 °FBroken clouds.9 mph83%29.86 "HgN/A
10:20 am70 °FBroken clouds.9 mph83%29.86 "HgN/A
9:50 am70 °FBroken clouds.7 mph88%29.86 "HgN/A
9:20 am68 °FBroken clouds.7 mph88%29.86 "HgN/A
8:50 am70 °FSprinkles. Broken clouds.9 mph88%29.86 "HgN/A
8:20 am70 °FBroken clouds.7 mph88%29.83 "HgN/A
7:50 am68 °FBroken clouds.3 mph88%29.83 "HgN/A
7:20 am68 °FSunny.2 mph94%29.83 "Hg10 mi
6:50 am68 °FPartly sunny.2 mph94%29.83 "HgN/A
6:20 am68 °FBroken clouds.2 mph94%29.83 "HgN/A
5:50 am66 °FBroken clouds.5 mph94%29.83 "HgN/A
5:20 am66 °FPartly cloudy.7 mph94%29.80 "HgN/A
4:50 am68 °FSprinkles. Partly cloudy.6 mph94%29.80 "HgN/A
4:20 am68 °FRain showers. Partly cloudy.1 mph94%29.83 "HgN/A
3:50 am70 °FPassing clouds.5 mph83%29.83 "HgN/A
3:20 am70 °FPassing clouds.5 mph83%29.80 "HgN/A
2:50 am70 °FClear.7 mph83%29.83 "Hg10 mi
2:20 am72 °FClear.6 mph78%29.83 "Hg10 mi
1:50 am70 °FClear.8 mph83%29.83 "Hg10 mi
1:20 am72 °FClear.8 mph73%29.83 "Hg10 mi
12:50 am70 °FClear.8 mph78%29.83 "Hg10 mi
12:20 am70 °FClear.2 mph78%29.80 "Hg10 mi
Weather by CustomWeather, © 2017

See weather overviewHow to use our weather pages